Location: Bowman Observatory
(41.0326°N, 73.6210°W)
Time: 20:36:10
(UTC-04:00)

Cosmos 2297 - Visible Passes

Search period start: 24 October 2014 00:00
Search period end: 02 November 2014 23:00
Orbit: 837 x 859 km, 71.0° (Epoch: 24 October)

Date Brightness Start Highest point End Pass type
(mag) Time Alt. Az. Time Alt. Az. Time Alt. Az.
24 Oct 4.5 18:44:56 10° N 18:49:49 29° NE 18:54:40 10° ESE visible
24 Oct 4.8 20:28:50 10° NW 20:34:06 41° WSW 20:37:16 22° SSW visible
25 Oct 4.6 18:31:42 10° N 18:36:33 29° NE 18:41:22 10° ESE visible
25 Oct 4.8 20:15:34 10° NW 20:20:51 42° WSW 20:26:05 10° S visible
26 Oct 4.6 18:18:27 10° N 18:23:17 28° NE 18:28:04 10° ESE visible
26 Oct 4.8 20:02:18 10° NW 20:07:36 43° WSW 20:12:52 10° S visible
27 Oct 4.8 19:49:02 10° NW 19:54:21 44° WSW 19:59:38 10° S visible
28 Oct 4.8 19:35:45 10° NW 19:41:06 45° WSW 19:46:24 10° S visible
29 Oct 4.8 19:22:29 10° NW 19:27:51 46° WSW 19:33:10 10° S visible
30 Oct 4.8 19:09:13 10° NW 19:14:36 47° WSW 19:19:55 10° S visible
31 Oct 4.8 18:55:57 10° NW 19:01:20 48° WSW 19:06:41 10° S visible
01 Nov 4.8 18:42:40 10° NW 18:48:05 49° WSW 18:53:27 10° S visible
02 Nov 4.8 17:29:24 10° NW 17:34:50 50° WSW 17:40:12 10° S visible
